Regional Weather Roundup
Issued by NWS Wakefield, VA

Home | Current Version | Previous Version | Graphics & Text | Print | Product List | Glossary On
Versions: 1 2 3 4 5 6 7 8 9 10 11 12 13 14 15 16 17 18 19 20 21 22 23 24 25 26 27
000
ASUS41 KAKQ 120715
RWRAKQ

REGIONAL WEATHER ROUNDUP
NATIONAL WEATHER SERVICE WAKEFIELD VA
200 AM EST TUE DEC 12 2017

Note: "fair" indicates few or no clouds below 12,000 feet with no
significant weather and/or obstructions to visibility. * = Denotes
station may not report precipitation (e.g., rain,snow,etc.),
thunder or fog.

VAZ042-051-052>054-056-120800-
NORTHERN VIRGINIA

CITY           SKY/WX    TMP DP  RH WIND       PRES   REMARKS
WASH NATIONAL  CLOUDY    42  33  70 S10       29.79F
DULLES         CLOUDY    40  30  67 S12       29.74F
FORT BELVOIR   CLOUDY    40  30  68 SE7       29.77F
QUANTICO       CLOUDY    43  34  70 S10       29.80F
FREDERICKSBRG* PTCLDY    39  32  75 S8        29.78F
STAFFORD*      CLOUDY    37  30  78 S3        29.82F
WARRENTON      CLOUDY    39  27  63 CALM      29.75F
CULPEPER*      MOCLDY    38  28  67 S5        29.76F
MANASSAS*      CLOUDY    38  30  73 S8        29.76F
LEESBURG*      MOCLDY    41  32  70 S6        29.75F
WINCHESTER     MOCLDY    37  28  70 SW3       29.68F
FRONT ROYAL*   PTSUNNY   37  28  70 CALM      29.68F
LURAY*         CLOUDY    43  30  61 SW7       29.69F
$$

VAZ048-049-060>072-079>083-120800-
CENTRAL AND SOUTH CENTRAL VIRGINIA

CITY           SKY/WX    TMP DP  RH WIND       PRES   REMARKS
RICHMOND       MOCLDY    37  31  78 S9        29.82F
CHESTERFIELD*  NOT AVBL
PETERSBURG*    PTCLDY    32  28  86 CALM      29.84F
HANOVER        PTCLDY    37  30  75 S6        29.82F
TAPPAHANNOCK*    N/A    N/A N/A N/A MISG        N/A
QUINTON*       PTSUNNY   37  31  79 S7        29.83F
CHARLOTTSVILLE CLOUDY    39  29  67 S7        29.74F
GORDONSVILLE*  MOSUNNY   35  29  79 W3        29.75F
ORANGE*        CLOUDY    36  28  75 CALM      29.76F
LOUISA*        MOCLDY    38  29  69 S6        29.80F
BUMPASS*       FAIR      39  28  65 S3        29.78F
FARMVILLE*     PTCLDY    35  32  88 SW5       29.77F
CREWE*         FAIR      37  32  84 S6        29.80F
FORT PICKETT*  NOT AVBL
CHASE CITY*    FAIR      40  30  66 S3        29.80F
CLARKSVILLE*   FAIR      39  32  75 S7        29.81F
SOUTH HILL*    CLEAR     36  31  83 S6        29.88F
LAWRENCEVILLE* FAIR      38  30  72 S3        29.83S
EMPORIA*       CLEAR     34  30  86 CALM      29.86S
$$

VAZ088>098-120800-
SOUTHEAST VIRGINIA

CITY           SKY/WX    TMP DP  RH WIND       PRES   REMARKS
NORFOLK        PTCLDY    41  35  79 S9        29.87F
VIRGINIA BEACH PTCLDY    41  34  76 S7        29.88F
NORFOLK NAVAL  CLOUDY    42  34  73 S7        29.87F
WEST POINT*    CLOUDY   N/A N/A N/A S6        29.86F
SALUDA*        FAIR      41  35  79 S5        29.85F
NEWPORT NEWS   CLOUDY    43  32  65 S9        29.85F
LANGLEY AFB    CLOUDY    41  35  78 S6        29.84F
FORT EUSTIS    CLOUDY    42  34  73 S3        29.83F
WILLIAMSBURG*  CLOUDY    43  34  70 CALM      29.87S
HR EXEC AP*    FAIR      38  34  85 S7        29.87F
FRANKLIN*      CLOUDY    37  31  77 S7        29.86F
US460-WAKEFLD  CLOUDY    40  31  70 VRB3      29.85F
$$

VAZ020-022-025-037-045-120800-
WEST CENTRAL AND SOUTHWEST VIRGINIA

CITY           SKY/WX    TMP DP  RH WIND       PRES   REMARKS
STAUNTON*      CLOUDY    34  27  75 CALM      29.72F
WAYNESBORO*    CLOUDY    37  28  70 CALM      29.70F
HOT SPRINGS VA CLOUDY    39  23  54 W18G26    29.67F
LYNCHBURG      PTCLDY    36  29  75 S7        29.76F
DANVILLE       MOCLDY    34  30  85 CALM      29.80F
SOUTH BOSTON*  FAIR      36  29  74 CALM      29.80F
MARTINSVILLE   PTCLDY    29  27  94 CALM      29.81F
ROANOKE        CLOUDY    38  29  70 CALM      29.76F
BLACKSBURG     MOCLDY    39  30  70 SW6       29.76F
DUBLIN*        PTCLDY    37  29  73 SW8       29.75F
MARION*        PTCLDY    40  27  58 W16G22    29.76F
HILLSVILLE*    PTCLDY    37  28  71 SW6       29.73F
RICHLANDS*     FAIR      42  12  29 SW8G25    29.75F
WISE*          CLOUDY    41  32  70 SW12G17   29.76F
ABINGDON*      PTCLDY    38  30  73 W3        29.78F
$$

MDZ021>025-VAZ099-100-120800-
SOUTHERN MARYLAND AND THE DELMARVA PENINSULA

CITY           SKY/WX    TMP DP  RH WIND       PRES   REMARKS
PATUXENT RIVER MOCLDY    42  34  73 S9        29.82F
BAY BRIDGE APT CLOUDY    41  36  81 S10       29.81F
LEONARDTOWN    MOCLDY    41  32  70 S5        29.83F
DOVER          CLOUDY    38  33  83 SE8       29.83F
GEORGETOWN     CLOUDY    38  30  73 S7        29.85F
EASTON         CLOUDY    41  33  71 S9        29.85F
CAMBRIDGE      CLEAR     41  36  81 S12G18    29.82F
SALISBURY      CLOUDY    38  33  82 S7        29.86F
OCEAN CITY     CLEAR     45  37  73 SW7       29.87F
WALLOPS ISLAND CLOUDY    45  38  76 S14       29.87F
ACCOMACK*      MOCLDY    45  37  71 S12G17    29.86F
$$

NCZ012>017-030>032-120800-
NORTH CENTRAL AND EASTERN NORTH CAROLINA

CITY           SKY/WX    TMP DP  RH WIND       PRES   REMARKS
ROANOKE RAPIDS FAIR      37  32  81 CALM      29.85F
RALEIGH        PTCLDY    41  31  67 SW9       29.84F
ELIZABETH CITY CLEAR     37  37 100 S6        29.90F
AHOSKIE*       CLEAR     34  29  85 SE5       29.88F
EDENTON*       CLEAR     43  37  78 SW8       29.91F
CURRITUCK*     CLEAR     36  35  98 CALM      29.90F
KILL DEVIL HLS CLEAR     43  38  82 CALM      29.89F
MANTEO         CLEAR     38  36  91 S3        29.91F
CAPE HATTERAS  CLEAR     39  38  96 NW5       29.91F
TARBORO*       NOT AVBL
GOLDSBORO      CLEAR     41  32  70 S6        29.87F
WASHINGTON     CLEAR     38  32  79 S3        29.91F
GREENVILLE     CLEAR     36  30  80 S5        29.92F
NEW BERN       CLEAR     33  32  96 S6        29.93F
WILMINGTON     CLEAR     35  33  92 S3        29.93F
$$

VAZ048-120800-
ELSEWHERE

CITY           SKY/WX    TMP DP  RH WIND       PRES   REMARKS
HARRISBURG PA  CLOUDY    37  29  72 E8        29.75F
BALTIMORE      CLOUDY    42  32  67 S8        29.77F
ANNAPOLIS      CLOUDY    44  37  76 S14G22    29.79F
ANDREWS AFB    CLOUDY    38  31  74 S7        29.77F
PHILADELPHIA   CLOUDY    37  28  70 SE3       29.84F
HENDERSON NC   CLEAR     38  28  67 S10       29.82F
GREENSBORO     CLOUDY    39  32  76 S8        29.78F
ROCKY MOUNT    CLEAR     37  31  78 S5        29.86F
$$

VAZ100-120800-
MARINE

STATION/POSITION TIME  TEMP    WIND        PRES    WAVE   SWELL
                       AIR SEA DIR/SP/G            HT/PER HT/PER
                 (UTC) (F)     (DEG/KT/KT) (MB)    (FT/S) (FT/S)
BRANDYWINE LGT   0636          190/ 19/ 23 1011.1F
CAPE MAY NJ      0642      44  190/  9/ 13 1010.5F
LEWES DE         0642      47  190/  7/ 12 1010.7F
15NM E FENWICK I 0650   50 54  170/ 19/ 21 1011.4F   3/ 4   2/10
OCEAN-CITY-INLET 0642      48  210/ 16/ 21 1012.1F
WACHAPREAGUE VA  0636      43  210/  6/  8 1011.6F
THOMAS POINT MD  0700   46 48  180/ 23/ 25   N/A
GOOSES REEF MD   0700   46 48  190/ 17/ 21 1009.8    3/ 3
COVE POINT MD    0636          200/ 17/ 21 1010.1F
SOLOMONS ISLAND  0636      48  180/ 13/ 19 1009.4F
BISHOPS HEAD MD  0642      42  170/ 18/ 20 1010.4F
PINEY POINT MD   0636          190/ 14/ 17   N/A
POTOMAC MD       0700   45 48  180/ 16/ 19 1009.1    2/ 3
CAMBRIDGE MD     0636      44              1010.5F
LEWISETTA VA     0636      44  190/  9/ 11 1010.1F
RAPPAHANNOCK LGT 0636          170/ 15/ 19 1011.9F
STINGRAY PT      0650   45     210/ 14/ 17 1011.1F
YORK RVR RNG VA  0636          210/ 16/ 18 1011.4F
YORKTOWN VA      0636      49  180/  5/  7 1010.6F
JAMESTOWN VA     0700      47  200/  8/ 10   N/A     1
DOMINION TERM VA 0636          180/  9/ 12 1011.5F
KIPTOPEKE VA     0636      48  190/ 16/ 20   N/A
CAPE HENRY VA    0636          170/  8/ 12   N/A
WILLOUBY STN VA  0636                      1011.0F
S CRANEY ISL VA  0636          190/  8/ 11 1011.6F
CAPE HENRY BUOY  0700      53                N/A     3/ 4
1ST LANDING BUOY 0700   44 50  200/ 16/ 17 1011.4    2/ 3
CAPE CHARLES BUO 0651      53                N/A     3/ 4
64NM E OF VA BCH 0650   53 59  210/ 12/ 14 1012.7F   3/ 3   2/ 8
DUCK PIER NC     0636      54  170/  5/  7 1012.0F
44100 DUCK FRF   0615      55                N/A     2/ 8
44056 DUCK FRF   0700      54                N/A     2/13
OREGON INLET NC  0636      46  160/  1/  2 1012.8F
HATTERAS NC      0636      54  310/  3/  3 1012.7F
DIAMOND SHLS NC  0650   62 76  250/ 14/ 17 1012.7F   3/ 8   2/ 8
CAPE LOOKOUT NC  0700          240/  9/ 12 1013.8F
$$




USA.gov is the U.S. government's official web portal to all federal, state and local government web resources and services.